Regional Weather Roundup
Issued by NWS

Home | Current Version | Previous Version | Text Only | Print | Product List | Glossary On
Versions: 1 2 3 4 5 6 7 8 9 10 11 12 13 14 15 16 17 18 19 20 21 22 23 24 25 26 27 28 29 30 31 32 33 34 35 36 37 38 39 40 41 42 43 44 45 46 47 48 49 50
000
ASUS46 KSTO 240415
RWRCA

NORTHERN AND CENTRAL CA REGIONAL WEATHER ROUNDUP
NATIONAL WEATHER SERVICE SACRAMENTO CA
900 PM PDT THU MAR 23 2017

NOTE: FAIR INDICATES FEW OR NO CLOUDS BELOW 12,000 FEET WITH NO
SIGNIFICANT WEATHER AND/OR OBSTRUCTIONS TO VISIBILITY.

CAZ001-003-240500-
NORTHWEST AREA

CITY           SKY/WX    TMP DP  RH WIND       PRES   REMARKS
CRESCENT CITY  LGT RAIN  53  44  71 S25G38    29.95F
UKIAH          CLOUDY    49  41  74 CALM      30.18F
$$

CAZ006-505>513-240500-
BAY AREA

CITY           SKY/WX    TMP DP  RH WIND       PRES   REMARKS
SANTA ROSA     CLOUDY    52  47  83 SE5       30.21R
SAN RAFAEL     N/A       54  MM  MM MISG
NAPA           CLOUDY    54  46  74 NW5       30.23R
CONCORD        CLOUDY    55  45  68 SW7       30.23S
OAKLAND CITY   N/A      MM  MM  MM MISG
OAKLAND        CLOUDY    56  45  66 SW6       30.24R
SAN FRAN CITY  N/A       54  MM  66 MISG
SAN FRAN ARPT  MOCLDY    55  43  63 SE6       30.23S
LIVERMORE      CLOUDY    52  43  71 W6        30.22S
HAYWARD        CLOUDY    56  42  59 W5        30.23S
REDWOOD CITY   N/A       54  MM  67 MISG
MOFFETT ARPT   CLOUDY    54  43  66 N6        30.24S
SAN JOSE ARPT  MOCLDY    54  42  64 NW8       30.24R
$$
CAZ034-037-514>518-240500-
CENTRAL COAST

CITY           SKY/WX    TMP DP  RH WIND       PRES   REMARKS
WATSONVILLE    PTCLDY    51  46  83 CALM      30.25S
SALINAS        PTCLDY    53  45  74 NW3       30.25S
MONTEREY       PTCLDY    50  44  80 SE3       30.25S
SAN LUIS OBISP CLEAR     53  46  77 NW13      30.24R
SANTA MARIA    CLEAR     49  47  93 NW10      30.23S
$$
CAZ015-016-240500-
NORTHERN SACRAMENTO VALLEY

CITY           SKY/WX    TMP DP  RH WIND       PRES   REMARKS
REDDING        LGT RAIN  53  48  83 W3        30.14R
RED BLUFF      CLOUDY    57  46  66 SE13      30.15R
OROVILLE       CLOUDY    58  43  57 SE12      30.20R
$$
CAZ016>018-240500-
SOUTHERN SACRAMENTO VALLEY

CITY           SKY/WX    TMP DP  RH WIND       PRES   REMARKS
AUBURN         CLOUDY    52  43  71 SE5       30.21S
BEALE AFB      CLOUDY    55  47  73 SE8       30.18R
LINCOLN        MOCLDY    55  45  67 S8        30.20R
MARYSVILLE     CLOUDY    56  47  71 S6        30.20R
SAC INTL ARPT  CLOUDY    56  47  71 S7        30.20R
MATHER AIRPORT CLOUDY    55  46  71 SW7       30.21R
DOWNTOWN SAC   N/A       56  MM  MM MISG
SAC EXEC ARPT  CLOUDY    54  46  74 SW8       30.21R
VACAVILLE      CLOUDY    55  41  59 SW5       30.21S
TRAVIS AFB     CLOUDY    53  45  75 SW9       30.20R
$$
CAZ019>021-240500-
SAN JOAQUIN VALLEY

CITY           SKY/WX    TMP DP  RH WIND       PRES   REMARKS
STOCKTON       CLOUDY    56  46  69 W10       30.22R
MODESTO        CLOUDY    59  46  62 NW6       30.21R
MERCED         MOCLDY    51  46  83 E5        30.20S
LEMOORE        PTCLDY    49  44  83 S7        30.23R
FRESNO         PTCLDY    58  45  62 NE3       30.23R
HANFORD        CLEAR     51  47  86 SE6       30.23S
PORTERVILLE    CLEAR     53  48  83 S3        30.26R
BAKERSFIELD    CLEAR     55  43  63 N3        30.25R
$$
CAZ011-012-071-240500-
NORTHERN MOUNTAINS

CITY           SKY/WX    TMP DP  RH WIND       PRES   REMARKS
YREKA          CLOUDY    47  36  65 S13       30.03S
MOUNT SHASTA   LGT RAIN  40  37  89 SE5       30.09R
ALTURAS        CLOUDY    42  32  67 W12       30.09R
$$
CAZ011-012-071-240500-
SIERRA NEVADA MTNS

CITY           SKY/WX    TMP DP  RH WIND       PRES   REMARKS
BLUE CANYON    FOG       36  36 100 S6        30.20S VSB 1/4 WCI  31
TRUCKEE        PTCLDY    34  27  75 S3        30.17S
TAHOE VLY ARPT PTCLDY    37  28  70 S10       30.17R WCI  30
MAMMOTH LAKES  FAIR      36  23  58 E8        30.18R WCI  29
$$



USA.gov is the U.S. government's official web portal to all federal, state and local government web resources and services.